Location: Barnston
(51.8500°N, 0.4000°E)
Time: 19:45:43
(UTC+00:00)

Cosmos 1900 - Pass Details

Date: 26 September 2023
Orbit: 678 x 741 km, 66.1° (Epoch: 08 December)

Event Time Altitude Azimuth Distance (km) Brightness Sun altitude
Rises 04:25:43 0° 319° (NW) 3,142 7.4 -13.7°
Reaches altitude 10° 04:28:04 10° 318° (NW) 2,227 6.7 -13.4°
Maximum altitude 04:33:10 79° 234° (SW) 752 4.3 -12.6°
Drops below altitude 10° 04:38:18 10° 147° (SSE) 2,242 7.2 -11.9°
Sets 04:40:40 0° 147° (SSE) 3,165 8.0 -11.5°
